Content
SEND FEEDBACK

Daily
Averages
Monthly
Summary
United States of America

HYDETOWN, PENNSYLVANIA


Home > North America > United States > Pennsylvania
Elevation: 1443 feet     Latitude: 41 38N     Longitude: 079 42W

WEATHER
 
SELECT A DAY
Number of Records: 452,653;   Date Range: 1/1/95 - 8/12/14
 
SHARE

PRINT THIS DATA

[ ← Previous Day ]
WEATHER ALMANAC - FEBRUARY 13, 2013
[ Next Day → ]
[ °C ]   °F
Weather ElementAverageHighLow
Temperature28.7 °F37.4 °F (12:55 pm)19.4 °F (2:15 am)
Dewpoint22.3 °F26.6 °F (12:35 pm)17.6 °F (2:35 am)
Humidity78.2 %100 % (2:15 am)56 % (1:15 pm)
Barometer29.76 in29.88 in (12:35 am)29.66 in (2:55 pm)
Wind Speed3.2 mph8.1 mph (11:35 pm)
Weather ElementAverage
Visibility8.2 mi
Wind DirectionSE (133.8 °)

Weather ElementTotal
Precipitation---
Heating Degree Days36.6 (Base 65)
Averaged from 71 records on February 13, 2013
WEATHER CONDITIONS BREAKOUT
WIND DIRECTION BREAKOUT
WEATHER BY HOUR - FEBRUARY 13, 2013
[ °C ]   °F
Local TimeTemperatureDewpointHumidityBarometerVisibilityWind DirectionWind SpeedGust SpeedPrecipitationEventsConditions
12:35 AM21.2 °F19.4 °F93 %29.88 in7.0 miCalmClear
12:55 AM21.2 °F19.4 °F93 %29.88 in6.0 miCalmClear
1:15 AM21.2 °F19.4 °F93 %29.87 in5.0 miCalmClear
1:35 AM21.2 °F19.4 °F93 %29.87 in4.0 miCalmClear
1:55 AM21.2 °F19.4 °F93 %29.87 in4.0 miNE (40°)3.5 mphClear
2:15 AM19.4 °F19.4 °F100 %29.87 in3.0 miNNE (20°)4.6 mphClear
2:35 AM21.2 °F17.6 °F86 %29.86 in3.0 miNorth (10°)3.5 mphPartly Cloudy
2:55 AM19.4 °F17.6 °F93 %29.86 in1.2 miCalmMostly Cloudy
3:15 AM21.2 °F19.4 °F93 %29.85 in5.0 miCalmOvercast
3:35 AM19.4 °F17.6 °F93 %29.84 in5.0 miCalmOvercast
3:55 AM21.2 °F19.4 °F93 %29.84 in5.0 miEast (100°)4.6 mphOvercast
4:15 AM23.0 °F21.2 °F93 %29.84 in6.0 miCalmOvercast
4:35 AM24.8 °F21.2 °F86 %29.84 in7.0 miCalmOvercast
4:55 AM24.8 °F21.2 °F86 %29.84 in9.0 miCalmOvercast
5:15 AM24.8 °F21.2 °F86 %29.84 in8.0 miCalmOvercast
5:35 AM24.8 °F21.2 °F86 %29.83 in9.0 miEast (100°)3.5 mphOvercast
5:55 AM24.8 °F21.2 °F86 %29.82 in7.0 miCalmOvercast
6:15 AM24.8 °F21.2 °F86 %29.81 in10.0 miCalmOvercast
6:35 AM24.8 °F19.4 °F80 %29.80 in10.0 miCalmMostly Cloudy
6:55 AM23.0 °F19.4 °F86 %29.80 in7.0 miEast (100°)3.5 mphClear
7:15 AM21.2 °F17.6 °F86 %29.80 in4.0 miEast (100°)3.5 mphClear
7:35 AM21.2 °F19.4 °F93 %29.80 in4.0 miCalmClear
7:55 AM21.2 °F19.4 °F93 %29.79 in5.0 miEast (100°)4.6 mphPartly Cloudy
8:15 AM24.8 °F21.2 °F86 %29.79 in6.0 miCalmScattered Clouds
8:35 AM24.8 °F21.2 °F86 %29.78 in7.0 miENE (70°)3.5 mphPartly Cloudy
8:55 AM26.6 °F21.2 °F80 %29.78 in8.0 miEast (80°)4.6 mphClear
9:15 AM26.6 °F23.0 °F86 %29.77 in8.0 miENE (60°)3.5 mphClear
9:35 AM28.4 °F24.8 °F86 %29.76 in8.0 miNE (50°)3.5 mphClear
9:55 AM30.2 °F24.8 °F80 %29.75 in10.0 miENE (60°)5.8 mphPartly Cloudy
10:15 AM32.0 °F24.8 °F75 %29.74 in10.0 miNE (50°)5.8 mphScattered Clouds
10:35 AM32.0 °F24.8 °F75 %29.76 in10.0 miENE (70°)4.6 mphPartly Cloudy
10:55 AM33.8 °F24.8 °F70 %29.76 in10.0 miCalmPartly Cloudy
11:15 AM33.8 °F24.8 °F70 %29.76 in10.0 miCalmMostly Cloudy
11:35 AM35.6 °F24.8 °F65 %29.75 in10.0 miCalmScattered Clouds
11:55 AM35.6 °F24.8 °F65 %29.74 in10.0 miCalmClear
12:15 PM35.6 °F24.8 °F65 %29.74 in10.0 miSouth (190°)4.6 mphClear
12:35 PM35.6 °F26.6 °F70 %29.74 in10.0 miSSE (150°)4.6 mphPartly Cloudy
12:55 PM37.4 °F24.8 °F60 %29.71 in10.0 miSE (130°)5.8 mphPartly Cloudy
1:15 PM37.4 °F23.0 °F56 %29.70 in10.0 miSE (140°)3.5 mphMostly Cloudy
1:35 PM37.4 °F23.0 °F56 %29.70 in10.0 miSouth (190°)6.9 mphOvercast
1:55 PM37.4 °F24.8 °F60 %29.69 in10.0 miSouth (170°)4.6 mphOvercast
2:15 PM37.4 °F24.8 °F60 %29.68 in10.0 miCalmMostly Cloudy
2:35 PM37.4 °F24.8 °F60 %29.67 in10.0 miCalmScattered Clouds
2:55 PM37.4 °F24.8 °F60 %29.66 in10.0 miCalmMostly Cloudy
3:15 PM37.4 °F24.8 °F60 %29.67 in10.0 miCalmOvercast
3:35 PM37.4 °F23.0 °F56 %29.67 in10.0 miCalmMostly Cloudy
3:55 PM37.4 °F24.8 °F60 %29.67 in10.0 miWest (280°)4.6 mphPartly Cloudy
4:15 PM37.4 °F23.0 °F56 %29.67 in10.0 miNW (320°)4.6 mphClear
4:35 PM37.4 °F24.8 °F60 %29.67 in10.0 miNNW (330°)5.8 mphPartly Cloudy
4:55 PM35.6 °F24.8 °F65 %29.67 in10.0 miNW (320°)6.9 mphMostly Cloudy
5:15 PM35.6 °F23.0 °F60 %29.67 in10.0 miNW (310°)4.6 mphMostly Cloudy
5:35 PM35.6 °F23.0 °F60 %29.68 in10.0 miWNW (290°)5.8 mphPartly Cloudy
5:55 PM33.8 °F23.0 °F65 %29.68 in10.0 miWNW (290°)5.8 mphMostly Cloudy
6:15 PM33.8 °F23.0 °F65 %29.69 in10.0 miNW (310°)6.9 mphPartly Cloudy
6:35 PM32.0 °F24.8 °F75 %29.70 in10.0 miWNW (300°)6.9 mphPartly Cloudy
6:55 PM30.2 °F24.8 °F80 %29.70 in10.0 miNW (320°)3.5 mphClear
7:15 PM30.2 °F24.8 °F80 %29.71 in10.0 miNW (310°)4.6 mphClear
7:35 PM30.2 °F24.8 °F80 %29.72 in10.0 miNW (310°)4.6 mphClear
7:55 PM28.4 °F23.0 °F80 %29.72 in10.0 miNW (310°)4.6 mphClear
8:15 PM28.4 °F23.0 °F80 %29.73 in10.0 miNW (310°)4.6 mphClear
8:35 PM28.4 °F23.0 °F80 %29.74 in10.0 miWNW (300°)5.8 mphClear
8:55 PM26.6 °F23.0 °F86 %29.75 in10.0 miWNW (290°)3.5 mphClear
9:15 PM26.6 °F23.0 °F86 %29.75 in10.0 miWNW (290°)5.8 mphMostly Cloudy
9:35 PM26.6 °F23.0 °F86 %29.76 in10.0 miWest (280°)5.8 mphOvercast
9:55 PM26.6 °F21.2 °F80 %29.76 in9.0 miWNW (300°)4.6 mphMostly Cloudy
10:15 PM26.6 °F23.0 °F86 %29.77 in8.0 miWest (280°)6.9 mphOvercast
10:35 PM26.6 °F23.0 °F86 %29.77 in8.0 miWNW (300°)4.6 mphOvercast
10:55 PM26.6 °F21.2 °F80 %29.78 in7.0 miNW (320°)4.6 mphOvercast
11:15 PM24.8 °F21.2 °F86 %29.78 in7.0 miWNW (290°)5.8 mphOvercast
11:35 PM24.8 °F21.2 °F86 %29.79 in7.0 miWest (280°)8.1 mphOvercast
11:55 PM24.8 °F21.2 °F86 %29.80 in6.0 miWest (280°)5.8 mphOvercast
Hourly data recorded from KFKL, located miles away from Hydetown, Pennsylvania







STORIES FROM OUR PARTNERS